| time (UTC) | temp F | wind direction | speed MPH | gust MPH | rain 1hr in | rain 24hr in | rain mn in | humidity % | barometer mb |
| 20260506051044 | 41 | 305 | 2.0 | 7.0 | 0.00 | 0.00 | 0.00 | 63 | 1011.6 |
| 20260506050543 | 41 | 294 | 2.0 | 5.0 | 0.00 | 0.00 | 0.00 | 63 | 1011.6 |
| 20260506045031 | 41 | 297 | 1.0 | 3.0 | 0.00 | 0.00 | 0.00 | 62 | 1011.5 |
| 20260506044743 | 41 | 300 | 1.0 | 4.0 | 0.00 | 0.00 | 0.00 | 62 | 1011.4 |
| 20260506044020 | 42 | 291 | 1.0 | 4.0 | 0.00 | 0.00 | 0.00 | 60 | 1011.5 |
| 20260506043514 | 42 | 293 | 0.0 | 3.0 | 0.00 | 0.00 | 0.00 | 61 | 1011.4 |
| 20260506043008 | 42 | 325 | 0.0 | 2.0 | 0.00 | 0.00 | 0.00 | 61 | 1011.6 |
| 20260506042501 | 42 | 326 | 0.0 | 0.0 | 0.00 | 0.00 | 0.00 | 61 | 1011.5 |
| 20260506041957 | 42 | 326 | 0.0 | 0.0 | 0.00 | 0.00 | 0.00 | 60 | 1011.5 |
| 20260506041449 | 42 | 326 | 0.0 | 0.0 | 0.00 | 0.00 | 0.00 | 60 | 1011.4 |
| 20260506041206 | 43 | 326 | 0.0 | 0.0 | 0.00 | 0.00 | 0.00 | 60 | 1011.4 |
| 20260506040437 | 43 | 326 | 0.0 | 0.0 | 0.00 | 0.00 | 0.00 | 60 | 1011.4 |
| 20260506035932 | 43 | 326 | 0.0 | 1.0 | 0.00 | 0.00 | 0.00 | 60 | 1011.3 |
| 20260506035426 | 43 | 326 | 0.0 | 1.0 | 0.00 | 0.00 | 0.00 | 60 | 1011.3 |
| 20260506034920 | 43 | 326 | 0.0 | 2.0 | 0.00 | 0.00 | 0.00 | 61 | 1011.3 |
| 20260506034633 | 43 | 326 | 0.0 | 2.0 | 0.00 | 0.00 | 0.00 | 60 | 1011.3 |
| 20260506033907 | 43 | 304 | 0.0 | 2.0 | 0.00 | 0.00 | 0.00 | 62 | 1011.2 |
| 20260506033401 | 43 | 290 | 1.0 | 3.0 | 0.00 | 0.00 | 0.00 | 62 | 1011.2 |
| 20260506032856 | 43 | 290 | 1.0 | 4.0 | 0.00 | 0.00 | 0.00 | 62 | 1011.3 |
| 20260506032349 | 44 | 290 | 1.0 | 4.0 | 0.00 | 0.00 | 0.00 | 59 | 1011.2 |
| 20260506032328 | 44 | 290 | 0.0 | 3.0 | 0.00 | 0.00 | 0.00 | 61 | 1011.2 |
| 20260506031338 | 44 | 290 | 0.0 | 1.0 | 0.00 | 0.00 | 0.00 | 60 | 1011.3 |
| 20260506030831 | 45 | 290 | 0.0 | 1.0 | 0.00 | 0.00 | 0.00 | 61 | 1011.4 |
| 20260506030326 | 45 | 290 | 1.0 | 3.0 | 0.00 | 0.00 | 0.00 | 57 | 1011.3 |
| 20260506025820 | 46 | 290 | 2.0 | 4.0 | 0.00 | 0.00 | 0.00 | 52 | 1011.2 |
| 20260506025313 | 47 | 290 | 2.0 | 4.0 | 0.00 | 0.00 | 0.00 | 51 | 1011.1 |
| 20260506024813 | 47 | 290 | 3.0 | 4.0 | 0.00 | 0.00 | 0.00 | 49 | 1011.1 |
| 20260506024314 | 47 | 296 | 3.0 | 5.0 | 0.00 | 0.00 | 0.00 | 47 | 1011.1 |
| 20260506024032 | 47 | 300 | 3.0 | 5.0 | 0.00 | 0.00 | 0.00 | 47 | 1011.0 |
| 20260506023314 | 47 | 295 | 3.0 | 5.0 | 0.00 | 0.00 | 0.00 | 48 | 1011.0 |
| 20260506022813 | 48 | 295 | 3.0 | 6.0 | 0.00 | 0.00 | 0.00 | 46 | 1011.1 |
| 20260506022313 | 47 | 294 | 2.0 | 6.0 | 0.00 | 0.00 | 0.00 | 47 | 1010.9 |
| 20260506021813 | 47 | 284 | 2.0 | 4.0 | 0.00 | 0.00 | 0.00 | 48 | 1010.9 |
| 20260506021312 | 47 | 291 | 2.0 | 4.0 | 0.00 | 0.00 | 0.00 | 50 | 1010.9 |
| 20260506021034 | 47 | 290 | 1.0 | 3.0 | 0.00 | 0.00 | 0.00 | 52 | 1010.8 |
| 20260506020308 | 47 | 290 | 0.0 | 3.0 | 0.00 | 0.00 | 0.00 | 53 | 1010.7 |
| 20260506015806 | 47 | 290 | 0.0 | 3.0 | 0.00 | 0.00 | 0.00 | 51 | 1010.7 |
| 20260506015306 | 47 | 290 | 0.0 | 3.0 | 0.00 | 0.00 | 0.00 | 53 | 1010.6 |
| 20260506015029 | 47 | 290 | 0.0 | 3.0 | 0.00 | 0.00 | 0.00 | 50 | 1010.5 |
| 20260506014302 | 48 | 291 | 1.0 | 3.0 | 0.00 | 0.00 | 0.00 | 52 | 1010.5 |
| 20260506013800 | 48 | 290 | 2.0 | 3.0 | 0.00 | 0.00 | 0.00 | 49 | 1010.4 |
| 20260506013300 | 48 | 291 | 2.0 | 5.0 | 0.00 | 0.00 | 0.00 | 44 | 1010.4 |
| 20260506012755 | 48 | 288 | 2.0 | 5.0 | 0.00 | 0.00 | 0.00 | 44 | 1010.3 |
| 20260506012255 | 48 | 295 | 2.0 | 7.0 | 0.00 | 0.00 | 0.00 | 48 | 1010.1 |
| 20260506012248 | 48 | 292 | 2.0 | 7.0 | 0.00 | 0.00 | 0.00 | 44 | 1010.0 |
| 20260506011255 | 48 | 293 | 1.0 | 4.0 | 0.00 | 0.00 | 0.00 | 45 | 1010.0 |
| 20260506010756 | 48 | 293 | 2.0 | 4.0 | 0.00 | 0.00 | 0.00 | 47 | 1010.0 |
| 20260506010256 | 48 | 292 | 1.0 | 4.0 | 0.00 | 0.00 | 0.00 | 46 | 1009.9 |
| 20260506005756 | 48 | 284 | 1.0 | 4.0 | 0.00 | 0.00 | 0.00 | 45 | 1009.9 |
| 20260506005257 | 48 | 284 | 2.0 | 4.0 | 0.00 | 0.00 | 0.00 | 45 | 1009.9 |
| 20260506004757 | 49 | 290 | 2.0 | 7.0 | 0.00 | 0.00 | 0.00 | 46 | 1009.8 |
| 20260506004251 | 49 | 311 | 3.0 | 9.0 | 0.00 | 0.00 | 0.00 | 44 | 1009.9 |
| 20260506003751 | 49 | 285 | 4.0 | 9.0 | 0.00 | 0.00 | 0.00 | 43 | 1009.8 |
| 20260506003516 | 50 | 293 | 4.0 | 9.0 | 0.00 | 0.00 | 0.00 | 42 | 1009.7 |
| 20260506002751 | 50 | 297 | 5.0 | 11.0 | 0.00 | 0.00 | 0.00 | 42 | 1009.7 |
| 20260506002252 | 50 | 331 | 6.0 | 11.0 | 0.00 | 0.00 | 0.00 | 41 | 1009.8 |
| 20260506001751 | 50 | 308 | 6.0 | 11.0 | 0.00 | 0.00 | 0.00 | 41 | 1009.8 |
| 20260506001251 | 50 | 308 | 7.0 | 14.0 | 0.00 | 0.00 | 0.00 | 41 | 1009.8 |
| 20260506000751 | 50 | 293 | 7.0 | 14.0 | 0.00 | 0.00 | 0.00 | 39 | 1009.7 |
| 20260506000251 | 51 | 304 | 6.0 | 11.0 | 0.00 | 0.00 | 0.00 | 40 | 1009.7 |
| 20260506000009 | 51 | 311 | 6.0 | 11.0 | 0.00 | 0.00 | 0.00 | 39 | 1009.7 |
| 20260505235730 | 51 | 301 | 6.0 | 11.0 | 0.00 | 0.00 | 0.00 | 42 | 1009.6 |
| 20260505234732 | 51 | 282 | 6.0 | 11.0 | 0.00 | 0.00 | 0.00 | 38 | 1009.6 |
| 20260505234226 | 51 | 302 | 7.0 | 12.0 | 0.00 | 0.00 | 0.00 | 39 | 1009.6 |
| 20260505233720 | 51 | 297 | 8.0 | 12.0 | 0.00 | 0.00 | 0.00 | 37 | 1009.6 |
| 20260505233215 | 51 | 296 | 7.0 | 12.0 | 0.00 | 0.00 | 0.00 | 37 | 1009.7 |
| 20260505232935 | 51 | 306 | 6.0 | 12.0 | 0.00 | 0.00 | 0.00 | 38 | 1009.6 |
| 20260505232203 | 51 | 294 | 6.0 | 12.0 | 0.00 | 0.00 | 0.00 | 37 | 1009.7 |
| 20260505231656 | 51 | 290 | 6.0 | 13.0 | 0.00 | 0.00 | 0.00 | 38 | 1009.6 |
| 20260505231150 | 51 | 282 | 7.0 | 13.0 | 0.00 | 0.00 | 0.00 | 36 | 1009.6 |
| 20260505230645 | 52 | 290 | 7.0 | 13.0 | 0.00 | 0.00 | 0.00 | 37 | 1009.6 |
| 20260505230358 | 52 | 311 | 7.0 | 12.0 | 0.00 | 0.00 | 0.00 | 36 | 1009.7 |
| 20260505225633 | 52 | 300 | 8.0 | 14.0 | 0.00 | 0.00 | 0.00 | 37 | 1009.7 |
| 20260505225127 | 52 | 301 | 8.0 | 14.0 | 0.00 | 0.00 | 0.00 | 34 | 1009.8 |
| 20260505224848 | 52 | 290 | 5.0 | 12.0 | 0.00 | 0.00 | 0.00 | 34 | 1009.7 |
| 20260505224116 | 52 | 309 | 5.0 | 10.0 | 0.00 | 0.00 | 0.00 | 36 | 1009.7 |
| 20260505223609 | 52 | 305 | 7.0 | 16.0 | 0.00 | 0.00 | 0.00 | 34 | 1009.7 |
| 20260505223103 | 52 | 314 | 7.0 | 16.0 | 0.00 | 0.00 | 0.00 | 35 | 1009.7 |
| 20260505222557 | 52 | 315 | 4.0 | 12.0 | 0.00 | 0.00 | 0.00 | 35 | 1009.7 |
| 20260505222050 | 52 | 313 | 5.0 | 10.0 | 0.00 | 0.00 | 0.00 | 35 | 1009.7 |
| 20260505221545 | 52 | 300 | 6.0 | 14.0 | 0.00 | 0.00 | 0.00 | 36 | 1009.6 |
| 20260505221039 | 53 | 321 | 6.0 | 14.0 | 0.00 | 0.00 | 0.00 | 34 | 1009.6 |
| 20260505221016 | 53 | 304 | 6.0 | 10.0 | 0.00 | 0.00 | 0.00 | 35 | 1009.6 |
| 20260505220026 | 53 | 290 | 6.0 | 12.0 | 0.00 | 0.00 | 0.00 | 35 | 1009.5 |
| 20260505215520 | 53 | 306 | 5.0 | 14.0 | 0.00 | 0.00 | 0.00 | 34 | 1009.6 |
| 20260505215235 | 53 | 294 | 6.0 | 14.0 | 0.00 | 0.00 | 0.00 | 35 | 1009.6 |
| 20260505214956 | 52 | 300 | 7.0 | 14.0 | 0.00 | 0.00 | 0.00 | 34 | 1009.6 |
| 20260505214002 | 52 | 300 | 7.0 | 13.0 | 0.00 | 0.00 | 0.00 | 34 | 1009.7 |
| 20260505213456 | 53 | 284 | 6.0 | 13.0 | 0.00 | 0.00 | 0.00 | 36 | 1009.6 |
| 20260505212950 | 53 | 303 | 5.0 | 11.0 | 0.00 | 0.00 | 0.00 | 35 | 1009.6 |
| 20260505212444 | 53 | 296 | 4.0 | 10.0 | 0.00 | 0.00 | 0.00 | 34 | 1009.7 |
| 20260505211938 | 53 | 30 | 3.0 | 10.0 | 0.00 | 0.00 | 0.00 | 34 | 1009.6 |
| 20260505211655 | 53 | 318 | 3.0 | 12.0 | 0.00 | 0.00 | 0.00 | 34 | 1009.7 |
| 20260505210927 | 54 | 24 | 5.0 | 15.0 | 0.00 | 0.00 | 0.00 | 34 | 1009.7 |
| 20260505210420 | 53 | 302 | 6.0 | 15.0 | 0.00 | 0.00 | 0.00 | 34 | 1009.6 |
| 20260505205915 | 53 | 263 | 6.0 | 14.0 | 0.00 | 0.00 | 0.00 | 33 | 1009.6 |
| 20260505205633 | 55 | 316 | 5.0 | 14.0 | 0.00 | 0.00 | 0.00 | 30 | 1009.8 |
| 20260505204902 | 55 | 355 | 7.0 | 14.0 | 0.00 | 0.00 | 0.00 | 32 | 1009.6 |
| 20260505204621 | 54 | 284 | 9.0 | 16.0 | 0.00 | 0.00 | 0.00 | 32 | 1009.7 |
| 20260505203851 | 55 | 316 | 9.0 | 16.0 | 0.00 | 0.00 | 0.00 | 31 | 1009.8 |
| 20260505203344 | 55 | 275 | 9.0 | 14.0 | 0.00 | 0.00 | 0.00 | 32 | 1009.9 |
| 20260505203058 | 54 | 302 | 9.0 | 18.0 | 0.00 | 0.00 | 0.00 | 33 | 1009.9 |
| 20260505202333 | 53 | 286 | 7.0 | 18.0 | 0.00 | 0.00 | 0.00 | 32 | 1010.0 |
| 20260505201826 | 53 | 312 | 8.0 | 14.0 | 0.00 | 0.00 | 0.00 | 33 | 1010.0 |
| 20260505201320 | 53 | 302 | 8.0 | 18.0 | 0.00 | 0.00 | 0.00 | 33 | 1010.0 |
| 20260505200815 | 54 | 309 | 7.0 | 18.0 | 0.00 | 0.00 | 0.00 | 36 | 1010.0 |
| 20260505200308 | 54 | 285 | 8.0 | 23.0 | 0.00 | 0.00 | 0.00 | 32 | 1009.8 |
| 20260505195804 | 53 | 307 | 8.0 | 23.0 | 0.00 | 0.00 | 0.00 | 33 | 1009.9 |
| 20260505195257 | 54 | 288 | 8.0 | 21.0 | 0.00 | 0.00 | 0.00 | 33 | 1010.0 |
| 20260505194750 | 55 | 311 | 8.0 | 14.0 | 0.00 | 0.00 | 0.00 | 34 | 1009.9 |
| 20260505194245 | 55 | 306 | 9.0 | 17.0 | 0.00 | 0.00 | 0.00 | 30 | 1010.0 |
| 20260505193738 | 54 | 273 | 9.0 | 17.0 | 0.00 | 0.00 | 0.00 | 32 | 1010.0 |
| 20260505193502 | 56 | 277 | 9.0 | 15.0 | 0.00 | 0.00 | 0.00 | 30 | 1010.0 |
| 20260505192727 | 55 | 291 | 7.0 | 12.0 | 0.00 | 0.00 | 0.00 | 31 | 1010.0 |
| 20260505192221 | 55 | 276 | 7.0 | 15.0 | 0.00 | 0.00 | 0.00 | 32 | 1010.0 |
| 20260505191714 | 56 | 287 | 8.0 | 15.0 | 0.00 | 0.00 | 0.00 | 29 | 1010.3 |
| 20260505191209 | 57 | 278 | 8.0 | 13.0 | 0.00 | 0.00 | 0.00 | 28 | 1010.1 |
| 20260505190923 | 57 | 244 | 8.0 | 17.0 | 0.00 | 0.00 | 0.00 | 32 | 1010.0 |
| 20260505190158 | 56 | 300 | 9.0 | 20.0 | 0.00 | 0.00 | 0.00 | 31 | 1010.0 |
| 20260505185650 | 56 | 316 | 9.0 | 20.0 | 0.00 | 0.00 | 0.00 | 30 | 1010.3 |
| 20260505185632 | 55 | 270 | 9.0 | 18.0 | 0.00 | 0.00 | 0.00 | 31 | 1010.3 |
| 20260505184638 | 55 | 299 | 8.0 | 18.0 | 0.00 | 0.00 | 0.00 | 31 | 1010.1 |
| 20260505184133 | 57 | 303 | 7.0 | 18.0 | 0.00 | 0.00 | 0.00 | 30 | 1009.9 |
| 20260505183626 | 57 | 334 | 9.0 | 18.0 | 0.00 | 0.00 | 0.00 | 30 | 1010.0 |
| 20260505183121 | 57 | 268 | 9.0 | 16.0 | 0.00 | 0.00 | 0.00 | 32 | 1009.8 |
| 20260505182833 | 55 | 329 | 8.0 | 20.0 | 0.00 | 0.00 | 0.00 | 29 | 1009.8 |
| 20260505182325 | 53 | 335 | 6.0 | 20.0 | 0.00 | 0.00 | 0.00 | 33 | 1009.8 |
| 20260505181825 | 53 | 311 | 6.0 | 13.0 | 0.00 | 0.00 | 0.00 | 35 | 1009.9 |
| 20260505181056 | 55 | 292 | 5.0 | 14.0 | 0.00 | 0.00 | 0.00 | 34 | 1009.8 |
| 20260505180551 | 54 | 284 | 5.0 | 14.0 | 0.00 | 0.00 | 0.00 | 32 | 1009.8 |
| 20260505180045 | 54 | 257 | 5.0 | 12.0 | 0.00 | 0.00 | 0.00 | 37 | 1009.8 |
| 20260505175543 | 53 | 319 | 6.0 | 15.0 | 0.00 | 0.00 | 0.00 | 36 | 1009.7 |
| 20260505175043 | 53 | 323 | 7.0 | 15.0 | 0.00 | 0.00 | 0.00 | 32 | 1009.9 |
| 20260505174540 | 55 | 310 | 8.0 | 15.0 | 0.00 | 0.00 | 0.00 | 34 | 1009.6 |
| 20260505174519 | 53 | 274 | 9.0 | 15.0 | 0.00 | 0.00 | 0.00 | 35 | 1009.7 |
| 20260505173758 | 51 | 280 | 7.0 | 14.0 | 0.00 | 0.00 | 0.00 | 33 | 1009.8 |
| 20260505173041 | 53 | 284 | 7.0 | 14.0 | 0.00 | 0.00 | 0.00 | 32 | 1009.7 |
| 20260505172541 | 54 | 290 | 8.0 | 14.0 | 0.00 | 0.00 | 0.00 | 32 | 1009.7 |
| 20260505172041 | 54 | 251 | 6.0 | 12.0 | 0.00 | 0.00 | 0.00 | 35 | 1009.6 |
| 20260505171541 | 54 | 305 | 5.0 | 10.0 | 0.00 | 0.00 | 0.00 | 33 | 1009.7 |
| 20260505171041 | 52 | 316 | 7.0 | 14.0 | 0.00 | 0.00 | 0.00 | 37 | 1009.8 |
| 20260505170801 | 53 | 303 | 8.0 | 15.0 | 0.00 | 0.00 | 0.00 | 32 | 1009.8 |
| 20260505170040 | 55 | 296 | 9.0 | 15.0 | 0.00 | 0.00 | 0.00 | 31 | 1009.8 |
| 20260505165540 | 55 | 237 | 9.0 | 14.0 | 0.00 | 0.00 | 0.00 | 31 | 1009.8 |
| 20260505165040 | 56 | 240 | 9.0 | 14.0 | 0.00 | 0.00 | 0.00 | 33 | 1009.8 |
| 20260505164537 | 54 | 284 | 9.0 | 15.0 | 0.00 | 0.00 | 0.00 | 34 | 1009.8 |
| 20260505164255 | 54 | 313 | 7.0 | 15.0 | 0.00 | 0.00 | 0.00 | 34 | 1009.9 |
| 20260505163536 | 53 | 284 | 7.0 | 15.0 | 0.00 | 0.00 | 0.00 | 33 | 1010.0 |
| 20260505163259 | 53 | 332 | 7.0 | 15.0 | 0.00 | 0.00 | 0.00 | 33 | 1009.9 |
| 20260505162537 | 53 | 280 | 7.0 | 16.0 | 0.00 | 0.00 | 0.00 | 35 | 1009.9 |
| 20260505162037 | 52 | 317 | 7.0 | 16.0 | 0.00 | 0.00 | 0.00 | 33 | 1009.9 |
| 20260505161537 | 52 | 316 | 5.0 | 10.0 | 0.00 | 0.00 | 0.00 | 34 | 1009.9 |
| 20260505161037 | 52 | 331 | 4.0 | 12.0 | 0.00 | 0.00 | 0.00 | 34 | 1009.8 |
| 20260505160537 | 52 | 296 | 5.0 | 12.0 | 0.00 | 0.00 | 0.00 | 36 | 1010.0 |
| 20260505153032 | 51 | 284 | 5.0 | 9.0 | 0.00 | 0.00 | 0.00 | 39 | 1009.8 |
| 20260505152532 | 50 | 286 | 3.0 | 9.0 | 0.00 | 0.00 | 0.00 | 37 | 1009.7 |
| 20260505152033 | 49 | 314 | 3.0 | 10.0 | 0.00 | 0.00 | 0.00 | 36 | 1009.7 |
| 20260505151525 | 49 | 296 | 5.0 | 13.0 | 0.00 | 0.00 | 0.00 | 34 | 1009.7 |
| 20260505151242 | 49 | 320 | 5.0 | 13.0 | 0.00 | 0.00 | 0.00 | 37 | 1009.6 |
| 20260505150513 | 49 | 266 | 5.0 | 9.0 | 0.00 | 0.00 | 0.00 | 35 | 1009.6 |
| 20260505140402 | 46 | 324 | 3.0 | 10.0 | 0.00 | 0.00 | 0.00 | 42 | 1009.9 |
| 20260505130245 | 43 | 298 | 6.0 | 13.0 | 0.00 | 0.00 | 0.00 | 53 | 1009.6 |
| 20260505124727 | 43 | 311 | 5.0 | 11.0 | 0.00 | 0.00 | 0.00 | 57 | 1009.3 |
| 20260505124222 | 42 | 287 | 4.0 | 7.0 | 0.00 | 0.00 | 0.00 | 59 | 1009.2 |
| 20260505123716 | 42 | 301 | 5.0 | 9.0 | 0.00 | 0.00 | 0.00 | 60 | 1009.0 |
| 20260505123210 | 42 | 320 | 5.0 | 9.0 | 0.00 | 0.00 | 0.00 | 60 | 1009.0 |
| 20260505122703 | 42 | 273 | 4.0 | 7.0 | 0.00 | 0.00 | 0.00 | 61 | 1008.9 |
| 20260505122158 | 41 | 281 | 4.0 | 7.0 | 0.00 | 0.00 | 0.00 | 62 | 1008.9 |
| 20260505121651 | 41 | 292 | 4.0 | 8.0 | 0.00 | 0.00 | 0.00 | 63 | 1008.8 |
| 20260505121146 | 40 | 294 | 4.0 | 8.0 | 0.00 | 0.00 | 0.00 | 64 | 1008.8 |
| 20260505120639 | 40 | 288 | 3.0 | 5.0 | 0.00 | 0.00 | 0.00 | 67 | 1008.6 |
| 20260505120135 | 39 | 293 | 3.0 | 5.0 | 0.00 | 0.00 | 0.00 | 67 | 1008.6 |
| 20260505115628 | 39 | 281 | 2.0 | 4.0 | 0.00 | 0.00 | 0.00 | 69 | 1008.4 |
| 20260505115121 | 38 | 273 | 2.0 | 4.0 | 0.00 | 0.00 | 0.00 | 71 | 1008.3 |
| 20260505114616 | 38 | 285 | 2.0 | 4.0 | 0.00 | 0.00 | 0.00 | 70 | 1008.2 |
| 20260505114331 | 38 | 285 | 2.0 | 3.0 | 0.00 | 0.00 | 0.00 | 70 | 1007.9 |
| 20260505113604 | 38 | 285 | 2.0 | 3.0 | 0.00 | 0.00 | 0.00 | 70 | 1008.0 |
| 20260505113057 | 38 | 286 | 1.0 | 3.0 | 0.00 | 0.00 | 0.00 | 69 | 1008.0 |
| 20260505112551 | 38 | 285 | 1.0 | 2.0 | 0.00 | 0.00 | 0.00 | 68 | 1007.9 |
| 20260505112045 | 38 | 285 | 1.0 | 2.0 | 0.00 | 0.00 | 0.00 | 67 | 1007.9 |
| 20260505111539 | 38 | 285 | 1.0 | 2.0 | 0.00 | 0.00 | 0.00 | 67 | 1008.0 |
| 20260505111035 | 38 | 285 | 1.0 | 2.0 | 0.00 | 0.00 | 0.00 | 66 | 1007.8 |
| 20260505110527 | 38 | 285 | 0.0 | 2.0 | 0.00 | 0.00 | 0.00 | 65 | 1007.8 |
| 20260505102200 | 40 | 285 | 1.0 | 2.0 | 0.00 | 0.00 | 0.00 | 61 | 1006.9 |
| 20260505101433 | 41 | 285 | 1.0 | 3.0 | 0.00 | 0.00 | 0.00 | 60 | 1006.9 |
| 20260505100917 | 41 | 285 | 1.0 | 3.0 | 0.00 | 0.00 | 0.00 | 59 | 1006.9 |
| 20260505100633 | 41 | 286 | 2.0 | 3.0 | 0.00 | 0.00 | 0.00 | 59 | 1006.9 |
| 20260505095905 | 41 | 286 | 2.0 | 4.0 | 0.00 | 0.00 | 0.00 | 60 | 1006.9 |
| 20260505095400 | 41 | 286 | 3.0 | 6.0 | 0.00 | 0.00 | 0.00 | 60 | 1006.8 |
| 20260505094900 | 41 | 286 | 3.0 | 6.0 | 0.00 | 0.00 | 0.00 | 59 | 1006.8 |
| 20260505094400 | 41 | 291 | 3.0 | 4.0 | 0.00 | 0.00 | 0.00 | 60 | 1006.8 |
| 20260505094116 | 42 | 292 | 3.0 | 4.0 | 0.00 | 0.00 | 0.00 | 59 | 1006.9 |
| 20260505093358 | 42 | 288 | 3.0 | 6.0 | 0.00 | 0.00 | 0.00 | 58 | 1006.8 |
| 20260505092855 | 42 | 288 | 3.0 | 6.0 | 0.00 | 0.00 | 0.00 | 57 | 1006.9 |
| 20260505092354 | 43 | 292 | 3.0 | 4.0 | 0.00 | 0.00 | 0.00 | 57 | 1006.8 |
| 20260505091852 | 43 | 292 | 4.0 | 6.0 | 0.00 | 0.00 | 0.00 | 56 | 1006.7 |
| 20260505091351 | 43 | 294 | 4.0 | 8.0 | 0.00 | 0.00 | 0.00 | 55 | 1006.7 |
| 20260505090851 | 43 | 296 | 4.0 | 9.0 | 0.00 | 0.00 | 0.00 | 56 | 1006.5 |
| 20260505090351 | 43 | 292 | 4.0 | 9.0 | 0.00 | 0.00 | 0.00 | 55 | 1006.6 |
| 20260505090109 | 43 | 277 | 4.0 | 10.0 | 0.00 | 0.00 | 0.00 | 55 | 1006.5 |
| 20260505085352 | 43 | 290 | 4.0 | 10.0 | 0.00 | 0.00 | 0.00 | 55 | 1006.5 |
| 20260505084852 | 43 | 294 | 3.0 | 7.0 | 0.00 | 0.00 | 0.00 | 55 | 1006.3 |
| 20260505084608 | 44 | 286 | 3.0 | 6.0 | 0.00 | 0.00 | 0.00 | 55 | 1006.3 |
| 20260505083850 | 44 | 284 | 3.0 | 6.0 | 0.00 | 0.00 | 0.00 | 55 | 1006.2 |
| 20260505083349 | 44 | 277 | 4.0 | 9.0 | 0.00 | 0.00 | 0.00 | 54 | 1006.1 |
| 20260505082848 | 44 | 277 | 5.0 | 10.0 | 0.00 | 0.00 | 0.00 | 52 | 1006.0 |
| 20260505082348 | 44 | 297 | 6.0 | 10.0 | 0.00 | 0.00 | 0.00 | 51 | 1006.0 |
| 20260505081843 | 44 | 288 | 5.0 | 10.0 | 0.00 | 0.00 | 0.00 | 52 | 1005.9 |
| 20260505081605 | 44 | 271 | 4.0 | 9.0 | 0.00 | 0.00 | 0.00 | 53 | 1005.9 |
| 20260505080843 | 44 | 307 | 3.0 | 9.0 | 0.00 | 0.00 | 0.00 | 54 | 1005.7 |
| 20260505080343 | 44 | 295 | 3.0 | 5.0 | 0.00 | 0.00 | 0.00 | 54 | 1005.8 |
| 20260505075843 | 45 | 282 | 3.0 | 6.0 | 0.00 | 0.00 | 0.00 | 53 | 1005.7 |
| 20260505075343 | 45 | 285 | 4.0 | 10.0 | 0.00 | 0.00 | 0.00 | 53 | 1005.8 |
| 20260505075327 | 45 | 298 | 4.0 | 10.0 | 0.00 | 0.00 | 0.00 | 52 | 1005.7 |
| 20260505074344 | 45 | 296 | 4.0 | 8.0 | 0.00 | 0.00 | 0.00 | 52 | 1005.7 |
| 20260505074103 | 45 | 300 | 4.0 | 9.0 | 0.00 | 0.00 | 0.00 | 52 | 1005.8 |
| 20260505073829 | 45 | 281 | 4.0 | 9.0 | 0.00 | 0.00 | 0.00 | 51 | 1005.6 |
| 20260505072845 | 45 | 294 | 5.0 | 9.0 | 0.00 | 0.00 | 0.00 | 51 | 1005.6 |
| 20260505072343 | 45 | 292 | 4.0 | 9.0 | 0.00 | 0.00 | 0.00 | 52 | 1005.4 |
| 20260505071843 | 45 | 292 | 3.0 | 7.0 | 0.00 | 0.00 | 0.00 | 52 | 1005.6 |
| 20260505071343 | 45 | 306 | 3.0 | 7.0 | 0.00 | 0.00 | 0.00 | 53 | 1005.6 |
| 20260505070843 | 45 | 290 | 3.0 | 7.0 | 0.00 | 0.00 | 0.00 | 53 | 1005.7 |
| 20260505070603 | 45 | 297 | 3.0 | 7.0 | 0.00 | 0.00 | 0.00 | 53 | 1005.7 |
| 20260505065844 | 45 | 293 | 2.0 | 4.0 | 0.00 | 0.00 | 0.00 | 54 | 1005.7 |
| 20260505065607 | 45 | 284 | 2.0 | 4.0 | 0.00 | 0.00 | 0.00 | 53 | 1005.7 |
| 20260505064844 | 45 | 277 | 2.0 | 3.0 | 0.00 | 0.00 | 0.00 | 53 | 1005.9 |
| 20260505064603 | 45 | 276 | 2.0 | 3.0 | 0.00 | 0.00 | 0.00 | 52 | 1005.9 |
| 20260505063844 | 45 | 270 | 2.0 | 3.0 | 0.00 | 0.00 | 0.00 | 52 | 1005.9 |
| 20260505063344 | 45 | 269 | 1.0 | 3.0 | 0.00 | 0.00 | 0.00 | 51 | 1005.9 |
| 20260505062841 | 46 | 282 | 1.0 | 3.0 | 0.00 | 0.00 | 0.00 | 51 | 1005.8 |
| 20260505062342 | 46 | 283 | 2.0 | 4.0 | 0.00 | 0.00 | 0.00 | 51 | 1005.7 |
| 20260505061842 | 46 | 283 | 3.0 | 11.0 | 0.00 | 0.00 | 0.00 | 51 | 1005.8 |
| 20260505061339 | 46 | 281 | 3.0 | 11.0 | 0.00 | 0.00 | 0.00 | 49 | 1005.7 |
| 20260505060837 | 46 | 290 | 2.0 | 4.0 | 0.00 | 0.00 | 0.00 | 50 | 1005.8 |
| 20260505060335 | 46 | 291 | 2.0 | 3.0 | 0.00 | 0.00 | 0.00 | 50 | 1005.8 |
| 20260505055833 | 46 | 291 | 2.0 | 3.0 | 0.00 | 0.00 | 0.00 | 48 | 1005.9 |
| 20260505055554 | 47 | 291 | 2.0 | 3.0 | 0.00 | 0.00 | 0.00 | 47 | 1005.8 |
| 20260505054830 | 47 | 291 | 2.0 | 3.0 | 0.00 | 0.00 | 0.00 | 45 | 1005.8 |
| 20260505054327 | 47 | 291 | 2.0 | 4.0 | 0.00 | 0.00 | 0.00 | 45 | 1005.8 |
| 20260505053825 | 47 | 293 | 3.0 | 5.0 | 0.00 | 0.00 | 0.00 | 45 | 1005.9 |